TimeEST,TemperatureF,Dew PointF,Humidity,Sea Level PressureIn,VisibilityMPH,Wind Direction,Wind SpeedMPH,Gust SpeedMPH,PrecipitationIn,Events,Conditions,WindDirDegrees,DateUTC
12:15 AM,32.9,30.2,90,30.26,10.0,Calm,Calm,-,N/A,,Mostly Cloudy,0,2012-12-07 05:15:00
12:35 AM,33.3,30.2,89,30.25,10.0,Calm,Calm,-,N/A,,Mostly Cloudy,0,2012-12-07 05:35:00
12:55 AM,34.0,30.7,88,30.25,10.0,Calm,Calm,-,N/A,,Overcast,0,2012-12-07 05:55:00
1:15 AM,34.7,31.3,87,30.24,10.0,Calm,Calm,-,N/A,,Mostly Cloudy,0,2012-12-07 06:15:00
1:40 AM,34.7,31.1,87,30.24,10.0,Calm,Calm,-,N/A,,Mostly Cloudy,0,2012-12-07 06:40:00
2:00 AM,35.2,32.0,88,30.23,10.0,Calm,Calm,-,N/A,,Overcast,0,2012-12-07 07:00:00
2:20 AM,35.8,32.0,86,30.23,10.0,Calm,Calm,-,N/A,,Overcast,0,2012-12-07 07:20:00
2:40 AM,36.1,32.9,88,30.23,10.0,Calm,Calm,-,N/A,,Mostly Cloudy,0,2012-12-07 07:40:00
3:05 AM,37.4,34.0,87,30.22,10.0,Calm,Calm,-,N/A,,Overcast,0,2012-12-07 08:05:00
3:25 AM,37.8,33.8,86,30.21,10.0,Calm,Calm,-,N/A,,Overcast,0,2012-12-07 08:25:00
3:45 AM,37.6,34.0,87,30.20,10.0,Calm,Calm,-,N/A,,Mostly Cloudy,0,2012-12-07 08:45:00
4:05 AM,37.4,34.3,89,30.20,10.0,Calm,Calm,-,N/A,,Scattered Clouds,0,2012-12-07 09:05:00
4:30 AM,37.6,34.2,87,30.20,10.0,Calm,Calm,-,N/A,,Mostly Cloudy,0,2012-12-07 09:30:00
4:50 AM,38.5,35.6,89,30.20,10.0,Calm,Calm,-,N/A,,Overcast,0,2012-12-07 09:50:00
5:10 AM,39.2,34.9,84,30.19,10.0,Calm,Calm,-,N/A,,Overcast,0,2012-12-07 10:10:00
5:30 AM,39.7,34.9,83,30.19,10.0,Calm,Calm,-,N/A,,Overcast,0,2012-12-07 10:30:00
5:55 AM,40.1,35.4,83,30.19,10.0,Calm,Calm,-,N/A,,Overcast,0,2012-12-07 10:55:00
6:15 AM,40.3,35.8,84,30.20,10.0,Calm,Calm,-,N/A,,Overcast,0,2012-12-07 11:15:00
6:35 AM,40.3,37.0,88,30.19,10.0,Calm,Calm,-,N/A,,Overcast,0,2012-12-07 11:35:00
6:55 AM,41.2,38.3,89,30.19,10.0,Calm,Calm,-,N/A,,Overcast,0,2012-12-07 11:55:00
7:20 AM,41.9,38.3,87,30.19,7.0,SSE,3.5,-,N/A,,Overcast,160,2012-12-07 12:20:00
7:40 AM,42.1,38.8,88,30.19,10.0,SSE,3.5,-,N/A,,Overcast,160,2012-12-07 12:40:00
8:00 AM,42.1,38.8,88,30.18,10.0,Calm,Calm,-,N/A,,Overcast,0,2012-12-07 13:00:00
8:20 AM,42.4,39.4,89,30.19,10.0,Calm,Calm,-,N/A,,Overcast,0,2012-12-07 13:20:00
8:45 AM,42.3,40.8,95,30.18,10.0,Calm,Calm,-,N/A,,Overcast,0,2012-12-07 13:45:00
9:05 AM,42.8,41.2,94,30.18,10.0,SSE,3.5,-,N/A,,Overcast,160,2012-12-07 14:05:00
9:45 AM,43.7,40.6,89,30.19,10.0,Calm,Calm,-,N/A,,Overcast,0,2012-12-07 14:45:00
10:10 AM,44.4,41.0,88,30.18,10.0,South,4.6,-,N/A,,Overcast,180,2012-12-07 15:10:00
10:30 AM,45.0,41.2,87,30.17,10.0,SSE,4.6,-,N/A,,Overcast,160,2012-12-07 15:30:00
11:10 AM,46.0,40.6,81,30.14,10.0,South,5.8,-,N/A,,Overcast,170,2012-12-07 16:10:00
11:35 AM,47.8,40.5,76,30.13,10.0,South,4.6,-,N/A,,Overcast,170,2012-12-07 16:35:00
11:55 AM,48.2,40.5,75,30.12,10.0,South,3.5,-,N/A,,Overcast,190,2012-12-07 16:55:00
12:15 PM,48.6,40.3,73,30.11,10.0,SSW,4.6,-,N/A,,Overcast,210,2012-12-07 17:15:00
12:35 PM,49.1,40.3,72,30.10,10.0,SW,4.6,-,N/A,,Overcast,220,2012-12-07 17:35:00
1:00 PM,49.6,40.3,70,30.09,10.0,WSW,3.5,-,N/A,,Overcast,240,2012-12-07 18:00:00
1:20 PM,49.6,40.1,70,30.09,10.0,Calm,Calm,-,N/A,,Overcast,0,2012-12-07 18:20:00
1:40 PM,50.4,40.8,70,30.08,10.0,South,3.5,-,N/A,,Overcast,180,2012-12-07 18:40:00
2:00 PM,50.7,41.2,70,30.07,10.0,Calm,Calm,-,N/A,,Overcast,0,2012-12-07 19:00:00
2:25 PM,51.4,41.0,68,30.07,10.0,South,3.5,-,N/A,,Overcast,180,2012-12-07 19:25:00
2:45 PM,52.2,41.5,67,30.06,10.0,South,5.8,-,N/A,,Overcast,170,2012-12-07 19:45:00
3:00 PM,52.0,41.9,69,30.06,10.0,SSW,3.5,-,N/A,,Mostly Cloudy,200,2012-12-07 20:00:00
3:25 PM,51.8,41.9,69,30.07,10.0,SW,3.5,-,N/A,,Mostly Cloudy,230,2012-12-07 20:25:00
3:50 PM,51.8,41.9,69,30.06,10.0,Calm,Calm,-,N/A,,Overcast,0,2012-12-07 20:50:00
4:10 PM,51.8,41.9,69,30.06,10.0,Calm,Calm,-,N/A,,Overcast,0,2012-12-07 21:10:00
4:30 PM,51.4,42.4,71,30.06,10.0,Calm,Calm,-,N/A,,Overcast,0,2012-12-07 21:30:00
4:50 PM,50.4,43.5,77,30.05,10.0,Calm,Calm,-,N/A,,Overcast,0,2012-12-07 21:50:00
5:15 PM,50.7,43.2,75,30.06,10.0,Calm,Calm,-,N/A,,Overcast,0,2012-12-07 22:15:00
5:35 PM,50.4,43.3,77,30.06,10.0,Calm,Calm,-,N/A,,Overcast,0,2012-12-07 22:35:00
5:55 PM,50.0,44.6,82,30.06,10.0,Calm,Calm,-,N/A,,Overcast,0,2012-12-07 22:55:00
6:15 PM,50.0,45.0,83,30.05,10.0,Calm,Calm,-,N/A,,Overcast,0,2012-12-07 23:15:00
6:40 PM,50.7,45.0,81,30.05,10.0,Calm,Calm,-,N/A,,Overcast,0,2012-12-07 23:40:00
7:00 PM,51.3,45.9,82,30.05,10.0,Calm,Calm,-,N/A,,Overcast,0,2012-12-08 00:00:00
7:20 PM,50.7,46.2,85,30.04,10.0,Calm,Calm,-,N/A,,Overcast,0,2012-12-08 00:20:00
7:40 PM,50.9,46.2,84,30.04,10.0,Calm,Calm,-,N/A,,Overcast,0,2012-12-08 00:40:00
8:25 PM,50.9,46.6,85,30.04,10.0,Calm,Calm,-,N/A,,Overcast,0,2012-12-08 01:25:00
8:45 PM,50.7,47.3,88,30.03,10.0,Calm,Calm,-,N/A,,Overcast,0,2012-12-08 01:45:00
9:05 PM,51.3,47.3,86,30.03,10.0,Calm,Calm,-,N/A,,Overcast,0,2012-12-08 02:05:00
9:30 PM,50.5,48.2,92,30.02,10.0,Calm,Calm,-,N/A,,Overcast,0,2012-12-08 02:30:00
9:50 PM,50.2,48.2,93,30.02,10.0,Calm,Calm,-,N/A,,Overcast,0,2012-12-08 02:50:00
10:55 PM,50.2,49.1,96,30.00,7.0,Calm,Calm,-,N/A,,Overcast,0,2012-12-08 03:55:00
11:15 PM,49.8,49.3,98,29.99,10.0,Calm,Calm,-,N/A,,Overcast,0,2012-12-08 04:15:00
11:35 PM,50.0,49.5,98,29.99,10.0,Calm,Calm,-,N/A,,Overcast,0,2012-12-08 04:35:00
11:55 PM,50.0,49.5,98,29.98,10.0,Calm,Calm,-,N/A,,Overcast,0,2012-12-08 04:55:00